[[{"header":{"parameterUnit":"m.s-1","parameterCategory":1,"la1":30.2991,"la2":30.254,"lo1":-89.0895,"lo2":-89.0444,"dy":0.0017,"dx":0.0017,"nx":28,"ny":28,"refTime":"2023-09-25T03:00:00:Z","depth":0,"parameterNumber":2,"parameterNumberName":"U-component_of_WINDS"},"data":[0,0,0,0,0,0,0,0,0,0,0,0,0,0,0,0,0,0,0,0,0,0,0,0,0,0,0,0,0,0,0,0,0,0,0,0,0,0,0,0,0,0,0,0,0,0,0,0,0,0,0,0,0,0,0,0,0,0,1.3451,1.3452,0,1.3579,1.358,1.3582,1.365,1.365,1.365,1.3651,1.3781,1.3785,1.3788,0,0,0,0,0,0,0,0,0,0,0,0,0,1.3266,1.3269,1.3451,1.3452,1.3454,1.3579,1.358,1.3582,1.365,1.365,1.365,1.3651,1.378,1.3784,1.3788,0,0,0,0,0,0,0,0,0,0,0,0,0,1.3365,1.327,1.345,1.3503,1.3509,1.3578,1.358,1.3583,1.365,1.365,1.3651,1.3651,1.3779,1.3784,1.3789,1.3816,0,0,1.3804,1.3806,0,0,0,0,0,0,0,0,1.336,1.3372,1.3494,1.3499,1.3506,1.3599,1.3563,1.3661,1.365,1.3596,1.3651,1.3651,1.372,1.373,1.3754,1.3822,1.3827,1.3805,1.3808,1.381,1.3811,0,0,0,0,0,0,0,1.3353,1.3367,1.3501,1.3495,1.3503,1.352,1.3535,1.3582,1.3656,1.3601,1.3606,1.3621,1.3724,1.3749,1.3757,1.3829,1.3804,1.3809,1.3812,1.3814,1.3928,1.3928,0,0,0,0,0,0,1.3337,1.3361,1.3497,1.3505,1.3432,1.3524,1.354,1.3569,1.3655,1.3669,1.362,1.3623,1.374,1.3751,1.3762,1.3801,1.381,1.3814,1.3817,1.3928,1.3928,1.3928,0,0,0,0,0,0,1.3333,1.3349,1.3492,1.3435,1.3454,1.3527,1.3559,1.3571,1.3596,1.367,1.3683,1.3632,1.3741,1.3755,1.3802,1.3806,1.3817,1.3821,1.3928,1.3928,1.3928,1.3876,0,0,0,0,0,0,1.3328,1.3347,1.3357,1.3434,1.3457,1.3529,1.3559,1.3574,1.3605,1.361,1.3685,1.3697,1.3742,1.3794,1.3807,1.3813,1.3825,1.3928,1.3928,1.3928,1.3878,1.3874,1.3871,0,0,0,0,0,1.3321,1.3337,1.3358,1.3374,1.3472,1.353,1.3543,1.3594,1.3605,1.3616,1.3664,1.3695,1.3803,1.3799,1.3814,1.3821,1.3928,1.3928,1.3928,1.3879,1.3875,1.3871,0,0,0,0,0,0,1.3258,1.3348,1.3372,1.3414,1.3464,1.3541,1.3557,1.3588,1.3635,1.3638,1.37,1.3716,1.3758,1.3794,1.3787,1.3853,1.3869,1.3872,1.3827,1.3823,1.382,1.381,1.3829,0,0,0,0,0,1.325,1.3289,1.3366,1.3395,1.3419,1.3484,1.3511,1.3546,1.36,1.3622,1.3673,1.3724,1.377,1.3799,1.3845,1.3884,1.3902,1.3896,1.3893,1.389,1.3892,1.3916,1.3915,1.3928,1.3928,1.3928,0,0,1.3231,1.3286,1.3307,1.3384,1.3427,1.3467,1.3501,1.3541,1.3572,1.3628,1.3676,1.3715,1.3776,1.382,1.3841,1.3851,1.3893,1.389,1.3887,1.3891,1.3916,1.3915,1.3914,1.3928,1.3928,1.3928,0,0,1.3219,1.3264,1.3294,1.3337,1.3401,1.3445,1.3452,1.3525,1.3554,1.3603,1.3646,1.3684,1.3761,1.3804,1.3835,1.3841,1.3872,1.3855,1.3838,1.3861,1.386,1.3859,1.3862,1.3862,1.3856,1.3856,1.3856,0,1.3188,1.325,1.3305,1.3344,1.3377,1.3431,1.3463,1.3501,1.3577,1.3599,1.361,1.371,1.3755,1.3809,1.3811,1.3835,1.3845,1.3846,1.3856,1.3856,1.3856,1.3859,1.386,1.3854,1.3854,1.3854,1.3855,0,1.321,1.3252,1.3269,1.3342,1.3377,1.3412,1.3473,1.3502,1.3535,1.3577,1.3628,1.3684,1.3743,1.3759,1.3791,1.3819,1.3823,1.3844,1.3861,1.3851,1.3856,1.3857,1.385,1.3851,1.3852,1.3852,0,0,1.3159,1.3265,1.327,1.3305,1.3381,1.3415,1.3453,1.3511,1.3535,1.3587,1.3621,1.3686,1.3706,1.3742,1.378,1.38,1.3803,1.3819,1.3821,1.3814,1.3838,1.3821,1.3822,1.3824,1.3824,1.3824,1.3833,0,1.3158,1.3229,1.3281,1.3331,1.3372,1.3424,1.3458,1.3508,1.3549,1.359,1.3636,1.3681,1.3704,1.3726,1.3749,1.3797,1.3808,1.3798,1.3856,1.3857,1.3839,1.3824,1.3807,1.3812,1.3835,1.3835,1.3835,0,1.3165,1.3216,1.3271,1.3345,1.3364,1.3392,1.3451,1.3489,1.3549,1.3577,1.3618,1.3658,1.3701,1.3715,1.3776,1.3767,1.3795,1.3822,1.3824,1.3831,1.3845,1.3831,1.3815,1.3815,1.3838,1.3838,1.3838,0,1.3124,1.3206,1.325,1.3278,1.3365,1.3384,1.3421,1.3481,1.3513,1.3565,1.3587,1.3642,1.3673,1.3715,1.3769,1.3774,1.3825,1.3843,1.385,1.3848,1.3858,1.3856,1.3845,1.3875,1.3875,1.3875,1.3875,0,1.3116,1.3148,1.3232,1.3259,1.3297,1.3357,1.3392,1.3434,1.3487,1.3523,1.3573,1.3606,1.3675,1.3716,1.3759,1.3803,1.3816,1.3841,1.3852,1.3837,1.3834,1.3855,1.3856,1.3875,1.3875,1.3875,1.3875,0,1.3076,1.3133,1.3185,1.3264,1.3285,1.3309,1.3377,1.3405,1.345,1.3495,1.351,1.3579,1.3631,1.369,1.376,1.3789,1.3831,1.3847,1.3811,1.3817,1.3821,1.382,1.3823,1.3827,1.3853,1.3853,1.3853,0,1.3067,1.3093,1.3175,1.3203,1.324,1.3284,1.3318,1.3379,1.3412,1.3483,1.3503,1.3559,1.3607,1.3688,1.3745,1.38,1.3817,1.3815,1.3826,1.381,1.3818,1.3816,1.3819,1.3811,1.3811,1.381,1.381,0,1.3045,1.3073,1.312,1.3178,1.3217,1.3265,1.3316,1.3336,1.3407,1.3442,1.3496,1.3534,1.3607,1.3662,1.3725,1.3764,1.3799,1.3806,1.3811,1.3795,1.3774,1.3786,1.3802,1.3806,1.3806,1.3806,1.3807,1.3807,1.302,1.3046,1.3109,1.3161,1.3205,1.3251,1.3283,1.3332,1.3378,1.3443,1.3477,1.353,1.3591,1.3679,1.3717,1.3761,1.3772,1.3778,1.378,1.378,1.3776,1.3767,1.3772,1.3772,1.3773,1.3773,1.3773,0,1.3002,1.3045,1.3092,1.3161,1.3202,1.3233,1.3291,1.3323,1.337,1.3424,1.347,1.3533,1.3588,1.365,1.3708,1.3731,1.3749,1.3744,1.3743,1.3752,1.3763,1.3753,1.3729,1.3729,1.3729,1.3729,1.3729,1.3729,1.2996,1.3042,1.3078,1.3147,1.3191,1.3245,1.3275,1.3319,1.3362,1.3431,1.3476,1.3517,1.3575,1.3638,1.369,1.3707,1.3726,1.3717,1.3738,1.3747,1.3751,1.3754,1.3746,1.3721,1.3721,1.3724,1.3724,1.3724]},{"header":{"parameterUnit":"m.s-1","parameterCategory":1,"la1":30.2991,"la2":30.254,"lo1":-89.0895,"lo2":-89.0444,"dy":0.0017,"dx":0.0017,"nx":28,"ny":28,"refTime":"2023-09-25T03:00:00:Z","depth":0,"parameterNumber":3,"parameterNumberName":"V-component_of_WINDS"},"data":[0,0,0,0,0,0,0,0,0,0,0,0,0,0,0,0,0,0,0,0,0,0,0,0,0,0,0,0,0,0,0,0,0,0,0,0,0,0,0,0,0,0,0,0,0,0,0,0,0,0,0,0,0,0,0,0,0,0,-3.0153,-3.0149,0,-2.9785,-2.9781,-2.9777,-2.969,-2.9693,-2.9695,-2.9697,-2.93,-2.9288,-2.9275,0,0,0,0,0,0,0,0,0,0,0,0,0,-3.0759,-3.0749,-3.0153,-3.0148,-3.0144,-2.9786,-2.9781,-2.9776,-2.969,-2.9693,-2.9696,-2.9699,-2.9305,-2.9289,-2.9274,0,0,0,0,0,0,0,0,0,0,0,0,0,-3.0454,-3.0745,-3.0154,-3.0058,-3.0046,-2.9787,-2.9781,-2.9774,-2.9689,-2.9693,-2.9697,-2.97,-2.931,-2.9291,-2.9272,-2.9075,0,0,-2.9212,-2.9204,0,0,0,0,0,0,0,0,-3.0471,-3.0431,-3.0077,-3.0064,-3.005,-2.9788,-2.9849,-2.9539,-2.9688,-2.9824,-2.9698,-2.9702,-2.9458,-2.9427,-2.9349,-2.9057,-2.904,-2.9211,-2.9199,-2.9191,-2.9185,0,0,0,0,0,0,0,-3.0492,-3.0447,-3.0007,-3.0072,-3.0055,-3.0027,-2.9987,-2.979,-2.9623,-2.9812,-2.9805,-2.9764,-2.9451,-2.9368,-2.9339,-2.9034,-2.9211,-2.9194,-2.9182,-2.9174,-2.8555,-2.8551,0,0,0,0,0,0,-3.0533,-3.0465,-3.0018,-2.9996,-3.0275,-3.0013,-2.9969,-2.9868,-2.9625,-2.9593,-2.9761,-2.9761,-2.9399,-2.9361,-2.9324,-2.9074,-2.9191,-2.9172,-2.9161,-2.856,-2.8554,-2.8549,0,0,0,0,0,0,-3.0547,-3.0494,-3.0033,-3.0228,-3.0168,-2.9998,-2.9885,-2.9858,-2.9775,-2.9587,-2.9555,-2.9708,-2.94,-2.9352,-2.9138,-2.9059,-2.9164,-2.9146,-2.8566,-2.8558,-2.8552,-2.8575,0,0,0,0,0,0,-3.0564,-3.05,-3.0429,-3.0228,-3.0158,-2.986,-2.9881,-2.9849,-2.9744,-2.9741,-2.9528,-2.9496,-2.94,-2.9167,-2.9119,-2.9034,-2.9131,-2.8572,-2.8563,-2.8554,-2.8581,-2.857,-2.8561,0,0,0,0,0,-3.0586,-3.0446,-3.0425,-3.0372,-3.0066,-2.9856,-2.9814,-2.9712,-2.9739,-2.9661,-2.954,-2.9503,-2.9077,-2.9146,-2.9091,-2.8999,-2.8576,-2.8565,-2.8555,-2.8585,-2.8572,-2.8561,0,0,0,0,0,0,-3.0635,-3.0418,-3.0393,-3.0185,-3.004,-2.9842,-2.9742,-2.9702,-2.9542,-2.9544,-2.9418,-2.937,-2.9163,-2.906,-2.9141,-2.8793,-2.8826,-2.8804,-2.8869,-2.8854,-2.8845,-2.8871,-2.9115,0,0,0,0,0,-3.0624,-3.0478,-3.0293,-3.0127,-3.0056,-2.9912,-2.9816,-2.9751,-2.9592,-2.9528,-2.9392,-2.9234,-2.9063,-2.8954,-2.8787,-2.8567,-2.8515,-2.8476,-2.8466,-2.8459,-2.8439,-2.8309,-2.8287,-2.8514,-2.8514,-2.8514,0,0,-3.0594,-3.0458,-3.0372,-3.0133,-3.0013,-2.9857,-2.9861,-2.9696,-2.9577,-2.9501,-2.9292,-2.9186,-2.9,-2.8782,-2.8678,-2.8689,-2.8366,-2.8445,-2.8441,-2.8424,-2.8295,-2.8274,-2.8255,-2.8506,-2.8508,-2.8509,0,0,-3.0461,-3.0347,-3.0194,-3.0075,-2.9895,-2.98,-2.9764,-2.957,-2.9499,-2.9288,-2.9227,-2.908,-2.8792,-2.8661,-2.8557,-2.8373,-2.833,-2.8322,-2.8267,-2.8142,-2.8124,-2.8107,-2.8036,-2.8013,-2.8304,-2.8304,-2.8304,0,-3.0446,-3.0216,-3.0119,-2.9957,-2.9851,-2.9782,-2.9622,-2.9509,-2.9281,-2.9206,-2.9224,-2.8858,-2.8729,-2.8476,-2.8432,-2.8351,-2.8299,-2.8344,-2.8136,-2.8118,-2.8101,-2.8032,-2.8006,-2.8304,-2.8304,-2.8304,-2.8304,0,-3.0203,-3.0044,-2.9941,-2.9729,-2.9612,-2.9452,-2.9323,-2.9214,-2.9159,-2.9059,-2.8842,-2.8685,-2.8484,-2.8419,-2.8361,-2.8156,-2.8168,-2.8163,-2.8192,-2.8081,-2.8013,-2.7986,-2.8304,-2.8304,-2.8304,-2.8304,0,0,-3.0088,-2.9827,-2.979,-2.9691,-2.9488,-2.9359,-2.9193,-2.9002,-2.8909,-2.8754,-2.8606,-2.8364,-2.8357,-2.8239,-2.8165,-2.8056,-2.7914,-2.8062,-2.8055,-2.8035,-2.7671,-2.7673,-2.7645,-2.7887,-2.7881,-2.7877,-2.7685,0,-2.9926,-2.9635,-2.9542,-2.9295,-2.9143,-2.9075,-2.8929,-2.8784,-2.8687,-2.8537,-2.8427,-2.8255,-2.8263,-2.819,-2.808,-2.7955,-2.7838,-2.7968,-2.774,-2.7733,-2.7785,-2.761,-2.7612,-2.7439,-2.7658,-2.7654,-2.7651,0,-2.9698,-2.9545,-2.9286,-2.9099,-2.9031,-2.8904,-2.8719,-2.8581,-2.8412,-2.8348,-2.8217,-2.8152,-2.7968,-2.8012,-2.7753,-2.7843,-2.7744,-2.7669,-2.7659,-2.763,-2.7682,-2.7571,-2.7382,-2.7354,-2.7609,-2.7612,-2.7615,0,-2.9634,-2.9363,-2.9172,-2.909,-2.8869,-2.8779,-2.8681,-2.8518,-2.8409,-2.8245,-2.8171,-2.7988,-2.7885,-2.774,-2.7624,-2.7668,-2.7372,-2.7408,-2.7307,-2.731,-2.7244,-2.7249,-2.7032,-2.719,-2.719,-2.7191,-2.7191,0,-2.946,-2.9302,-2.914,-2.9021,-2.884,-2.8732,-2.8554,-2.8451,-2.8306,-2.8161,-2.809,-2.7953,-2.7811,-2.7654,-2.7561,-2.7357,-2.7312,-2.725,-2.7226,-2.7253,-2.7261,-2.7183,-2.719,-2.7184,-2.7185,-2.7186,-2.7188,0,-2.9356,-2.9242,-2.9028,-2.8838,-2.8786,-2.866,-2.8493,-2.8372,-2.8273,-2.809,-2.804,-2.7881,-2.7692,-2.7564,-2.7321,-2.7258,-2.7035,-2.7016,-2.7094,-2.7081,-2.6986,-2.6995,-2.6706,-2.666,-2.6855,-2.6853,-2.6852,0,-2.925,-2.9128,-2.8926,-2.8827,-2.8731,-2.8572,-2.8461,-2.8348,-2.8234,-2.8033,-2.7933,-2.7742,-2.7582,-2.7283,-2.714,-2.6953,-2.6925,-2.6837,-2.6895,-2.6925,-2.6916,-2.6923,-2.6908,-2.6826,-2.6824,-2.6823,-2.6822,0,-2.9072,-2.9022,-2.8869,-2.8694,-2.8566,-2.8421,-2.8276,-2.8197,-2.8057,-2.7931,-2.7741,-2.7618,-2.7372,-2.7179,-2.6978,-2.6869,-2.6818,-2.6806,-2.6771,-2.6795,-2.6844,-2.6811,-2.7063,-2.6811,-2.6813,-2.6813,-2.6814,-2.6814,-2.8959,-2.8846,-2.8687,-2.8516,-2.8397,-2.8262,-2.8138,-2.8026,-2.7868,-2.7663,-2.7604,-2.7404,-2.7234,-2.696,-2.6848,-2.6685,-2.6692,-2.6643,-2.663,-2.6618,-2.6616,-2.6875,-2.6648,-2.6648,-2.6648,-2.6648,-2.6648,0,-2.8773,-2.8668,-2.8514,-2.8315,-2.8179,-2.8154,-2.799,-2.7876,-2.7704,-2.7553,-2.7399,-2.7177,-2.699,-2.6835,-2.664,-2.6539,-2.6511,-2.6491,-2.6494,-2.6468,-2.6623,-2.6671,-2.6517,-2.6517,-2.6517,-2.6517,-2.6517,-2.6517,-2.8661,-2.8467,-2.8397,-2.814,-2.8033,-2.7843,-2.7751,-2.7624,-2.7503,-2.7261,-2.7108,-2.7011,-2.6855,-2.6649,-2.6473,-2.6432,-2.636,-2.6345,-2.6297,-2.6443,-2.6458,-2.6472,-2.6515,-2.6332,-2.6331,-2.6155,-2.6153,-2.6152]}]]